Find Echostar I

NORAD ID: 23754 Int'l Des: 1995-073 Owner: ECHO Country: US operational
HEOCIRCULAR

Current View

Loading 3D Globe...

About Echostar I

Echostar I (NORAD 23754) is a satellite launched Dec 28, 1995 by ECHO of US. It operates in HEO, CIRCULAR orbit with a mass of 3315.00 kg.

Upcoming Passes

Passes for default location (London). Set your location on the main map for personalized predictions.

Altitude History

Loading altitude history...

Two-Line Element Set

1 23754U 95073A 26193.78594795 .00000037 00000-0 00000+0 0 9999
2 23754 8.6788 62.6310 0001714 15.6641 181.7384 0.98930580 52252
Epoch: Jul 12, 2026 • Age: 31 hours

Current Status

Altitude 36166.6 km
Apogee / Perigee N/A
Velocity 3.06 km/s
Sub-Earth Point -7.96°S, 40.47°E
Launch Date Dec 28, 1995
Age 30.5 years
Type other

Technical Details

Classification Payload
Mass 3315.00 kg
Dry Mass 1324.00 kg
Total Mass 3315.00 kg
Length 3.60 m
Diameter 2.20 m
Span 23.60 m
Shape Box + 2 Pan
Manufacturer LMTEW
Bus Type AS7000
Phase Status Renamed
Owner/State ECHO/US

Most Searched